Location: ?ejeti?ky
(50.4060°N, 14.9016°E)
Time: 21:44:52
(UTC+00:00)

STARLINK-1364 - Pass Details

Date: 04 October 2020
Orbit: 548 x 551 km, 53.0° (Epoch: 23 October)

Event Time Altitude Azimuth Distance (km) Brightness Sun altitude
Exits shadow 03:09:15 38° 302° (WNW) 856 4.2 -19.2°
Maximum altitude 03:10:39 63° 7° (N) 621 3.9 -19.0°
Drops below altitude 10° 03:14:47 10° 90° (E) 1,828 7.4 -18.3°
Sets 03:17:03 0° 93° (E) 2,722 8.5 -18.0°
